Location: *
(58.4167°N, 22.5000°E)
Time: 20:11:41
(UTC+00:00)

ASTEX 1 - Pass Details

Date: 22 September 2019
Orbit: 719 x 745 km, 92.7° (Epoch: 13 October)

Event Time Altitude Azimuth Distance (km) Brightness Sun altitude
Rises 17:25:58 0° 7° (N) 3,150 6.8 -8.0°
Reaches altitude 10° 17:28:19 10° 12° (NNE) 2,223 5.9 -8.3°
Maximum altitude 17:33:09 55° 91° (E) 871 3.5 -8.9°
Drops below altitude 10° 17:37:56 10° 169° (S) 2,208 5.6 -9.5°
Sets 17:40:15 0° 174° (S) 3,126 6.4 -9.8°
